When you browse on this site, cookies collect data to enhance your experience and personalize the content and advertising you see.
Visit our Privacy Policy to learn more. By continuing to use the site, you agree to this use of cookies and data.
  • In France
  • List of Countries
  • For 7 days
  • Water Temperature
  • Satellite Maps
  • Weather Map
  • Weather Widgets
  • user-avatar
    Login

    Hourly Weather Tumen

    Today, 18 July, Thursday

    Time Temperature Precipitation Wind Pressure Humidity
    00:00 +21°C° 0 mm 1 mps 747 mmHg 98%
    01:00 +20°C° 0 mm 1 mps 747 mmHg 98%
    02:00 +18°C° 0 mm 0 mps 747 mmHg 98%
    03:00 +18°C° 0 mm 0 mps 747 mmHg 97%
    04:00 +19°C° 0 mm 0 mps 747 mmHg 97%
    05:00 +19°C° 0 mm 0 mps 747 mmHg 97%
    06:00 +19°C° 0 mm 0 mps 747 mmHg 96%
    07:00 +20°C° 0 mm 0 mps 747 mmHg 90%
    08:00 +22°C° 0 mm 0 mps 746 mmHg 85%
    09:00 +23°C° 0 mm 0 mps 746 mmHg 82%
    10:00 +27°C° 0.3 mm 1 mps 746 mmHg 76%
    11:00 +29°C° 0.3 mm 1 mps 746 mmHg 69%
    12:00 +30°C° 0.3 mm 1 mps 746 mmHg 62%
    13:00 +31°C° 0.4 mm 1 mps 745 mmHg 58%
    14:00 +32°C° 0.4 mm 2 mps 745 mmHg 54%
    15:00 +34°C° 0 mm 2 mps 745 mmHg 51%
    16:00 +32°C° 0.6 mm 2 mps 745 mmHg 57%
    17:00 +31°C° 0.6 mm 2 mps 745 mmHg 64%
    18:00 +30°C° 0.6 mm 2 mps 745 mmHg 71%
    19:00 +27°C° 0.9 mm 1 mps 745 mmHg 78%
    20:00 +25°C° 0.9 mm 1 mps 745 mmHg 86%
    21:00 +23°C° 0.9 mm 1 mps 746 mmHg 94%
    22:00 +23°C° 0 mm 1 mps 746 mmHg 95%
    23:00 +22°C° 0 mm 1 mps 746 mmHg 96%

    Tomorrow, 19 July, Friday

    Time Temperature Precipitation Wind Pressure Humidity
    00:00 +20°C° 0 mm 0 mps 746 mmHg 97%
    01:00 +20°C° 0 mm 0 mps 746 mmHg 97%
    02:00 +20°C° 0 mm 0 mps 746 mmHg 97%
    03:00 +20°C° 0 mm 0 mps 746 mmHg 97%
    04:00 +20°C° 0 mm 0 mps 746 mmHg 97%
    05:00 +20°C° 0 mm 0 mps 746 mmHg 96%
    06:00 +20°C° 0 mm 0 mps 747 mmHg 96%
    07:00 +24°C° 0 mm 1 mps 747 mmHg 89%
    08:00 +26°C° 0 mm 1 mps 746 mmHg 82%
    09:00 +27°C° 0 mm 1 mps 746 mmHg 74%
    10:00 +30°C° 0 mm 1 mps 746 mmHg 64%
    11:00 +32°C° 0 mm 1 mps 746 mmHg 54%
    12:00 +35°C° 0 mm 1 mps 746 mmHg 44%
    13:00 +35°C° 0 mm 1 mps 746 mmHg 42%
    14:00 +35°C° 0 mm 1 mps 745 mmHg 39%
    15:00 +35°C° 0 mm 1 mps 745 mmHg 37%
    16:00 +35°C° 0 mm 2 mps 745 mmHg 43%
    17:00 +34°C° 0 mm 3 mps 745 mmHg 50%
    18:00 +33°C° 0 mm 3 mps 745 mmHg 56%
    19:00 +29°C° 0 mm 3 mps 745 mmHg 67%
    20:00 +27°C° 0 mm 2 mps 745 mmHg 78%
    21:00 +24°C° 0 mm 1 mps 746 mmHg 90%
    22:00 +23°C° 0 mm 1 mps 746 mmHg 92%
    23:00 +22°C° 0 mm 1 mps 746 mmHg 94%

    Day after tomorrow, 20 July, Saturday

    Time Temperature Precipitation Wind Pressure Humidity
    00:00 +22°C° 0 mm 1 mps 746 mmHg 96%
    01:00 +21°C° 0 mm 1 mps 746 mmHg 96%
    02:00 +21°C° 0 mm 1 mps 746 mmHg 97%
    03:00 +20°C° 0 mm 1 mps 746 mmHg 97%
    04:00 +21°C° 0 mm 1 mps 746 mmHg 97%
    05:00 +21°C° 0 mm 1 mps 746 mmHg 97%
    06:00 +21°C° 0 mm 1 mps 746 mmHg 97%
    07:00 +22°C° 0 mm 1 mps 746 mmHg 94%
    08:00 +23°C° 0 mm 1 mps 746 mmHg 91%
    09:00 +24°C° 0 mm 2 mps 746 mmHg 88%
    10:00 +25°C° 0 mm 2 mps 746 mmHg 84%
    11:00 +26°C° 0 mm 3 mps 746 mmHg 79%
    12:00 +27°C° 0 mm 4 mps 745 mmHg 74%
    13:00 +28°C° 0 mm 4 mps 745 mmHg 72%
    14:00 +29°C° 0 mm 5 mps 745 mmHg 69%
    15:00 +29°C° 0 mm 5 mps 744 mmHg 66%
    16:00 +28°C° 0 mm 5 mps 744 mmHg 72%
    17:00 +27°C° 0 mm 5 mps 744 mmHg 77%
    18:00 +26°C° 0 mm 5 mps 744 mmHg 83%
    19:00 +25°C° 0 mm 4 mps 744 mmHg 87%
    20:00 +23°C° 0 mm 4 mps 745 mmHg 92%
    21:00 +24°C° 0 mm 3 mps 745 mmHg 96%
    22:00 +24°C° 0 mm 3 mps 745 mmHg 96%
    23:00 +24°C° 0 mm 3 mps 745 mmHg 95%

    21 July, Sunday

    Time Temperature Precipitation Wind Pressure Humidity
    00:00 +24°C° 0 mm 3 mps 745 mmHg 95%
    01:00 +23°C° 0 mm 2 mps 745 mmHg 95%
    02:00 +23°C° 0 mm 2 mps 745 mmHg 96%
    03:00 +23°C° 0 mm 2 mps 744 mmHg 96%
    04:00 +23°C° 0 mm 2 mps 744 mmHg 96%
    05:00 +23°C° 0 mm 2 mps 744 mmHg 96%
    06:00 +23°C° 0 mm 2 mps 744 mmHg 97%
    07:00 +23°C° 0.5 mm 2 mps 744 mmHg 97%
    08:00 +23°C° 0.5 mm 2 mps 744 mmHg 97%
    09:00 +23°C° 0.5 mm 2 mps 744 mmHg 97%
    10:00 +23°C° 3.4 mm 1 mps 744 mmHg 98%
    11:00 +23°C° 3.4 mm 1 mps 744 mmHg 98%
    12:00 +23°C° 3.4 mm 1 mps 744 mmHg 99%
    13:00 +23°C° 5.5 mm 1 mps 743 mmHg 99%
    14:00 +22°C° 5.5 mm 1 mps 743 mmHg 99%
    15:00 +22°C° 5.5 mm 1 mps 743 mmHg 99%
    16:00 +22°C° 2.7 mm 1 mps 743 mmHg 99%
    17:00 +22°C° 2.7 mm 1 mps 743 mmHg 99%
    18:00 +22°C° 2.7 mm 1 mps 743 mmHg 99%
    19:00 +22°C° 0.3 mm 1 mps 743 mmHg 99%
    20:00 +22°C° 0.3 mm 1 mps 743 mmHg 99%
    21:00 +21°C° 0.3 mm 1 mps 743 mmHg 99%
    22:00 +19°C° 0.1 mm 0 mps 743 mmHg 99%
    23:00 +19°C° 0.1 mm 0 mps 743 mmHg 99%

    22 July, Monday

    Time Temperature Precipitation Wind Pressure Humidity
    00:00 +19°C° 0.1 mm 0 mps 743 mmHg 99%
    01:00 +19°C° 0 mm 0 mps 743 mmHg 98%
    02:00 +19°C° 0 mm 0 mps 742 mmHg 98%
    03:00 +19°C° 0 mm 0 mps 742 mmHg 98%
    04:00 +19°C° 0 mm 0 mps 742 mmHg 98%
    05:00 +21°C° 0 mm 1 mps 742 mmHg 98%
    06:00 +21°C° 0 mm 1 mps 742 mmHg 98%
    07:00 +23°C° 0 mm 1 mps 742 mmHg 94%
    08:00 +24°C° 0 mm 1 mps 742 mmHg 89%
    09:00 +26°C° 0 mm 1 mps 742 mmHg 85%
    10:00 +28°C° 0 mm 1 mps 742 mmHg 75%
    11:00 +31°C° 0 mm 1 mps 741 mmHg 64%
    12:00 +34°C° 0 mm 1 mps 741 mmHg 54%
    13:00 +35°C° 0 mm 1 mps 740 mmHg 52%
    14:00 +36°C° 0 mm 2 mps 740 mmHg 51%
    15:00 +37°C° 0 mm 3 mps 739 mmHg 49%
    16:00 +35°C° 0 mm 2 mps 739 mmHg 56%
    17:00 +34°C° 0 mm 2 mps 739 mmHg 64%
    18:00 +31°C° 0 mm 2 mps 739 mmHg 71%
    19:00 +29°C° 0.1 mm 2 mps 740 mmHg 79%
    20:00 +27°C° 0.1 mm 2 mps 740 mmHg 88%
    21:00 +24°C° 0.1 mm 1 mps 741 mmHg 96%
    22:00 +24°C° 0.1 mm 1 mps 741 mmHg 96%
    23:00 +23°C° 0.1 mm 1 mps 741 mmHg 97%

    23 July, Tuesday

    Time Temperature Precipitation Wind Pressure Humidity
    00:00 +23°C° 0.1 mm 1 mps 741 mmHg 97%
    01:00 +23°C° 0.1 mm 1 mps 741 mmHg 98%
    02:00 +22°C° 0.1 mm 1 mps 741 mmHg 98%
    03:00 +22°C° 0.1 mm 1 mps 740 mmHg 98%
    04:00 +23°C° 0 mm 1 mps 741 mmHg 97%
    05:00 +21°C° 0 mm 0 mps 741 mmHg 97%
    06:00 +21°C° 0 mm 0 mps 741 mmHg 97%
    07:00 +25°C° 0.1 mm 1 mps 741 mmHg 92%
    08:00 +26°C° 0.1 mm 1 mps 741 mmHg 88%
    09:00 +28°C° 0.1 mm 1 mps 741 mmHg 83%
    10:00 +30°C° 0 mm 2 mps 741 mmHg 73%
    11:00 +31°C° 0 mm 2 mps 741 mmHg 62%
    12:00 +34°C° 0 mm 3 mps 741 mmHg 52%
    13:00 +32°C° 0 mm 2 mps 741 mmHg 56%
    14:00 +31°C° 0 mm 2 mps 740 mmHg 60%
    15:00 +30°C° 0 mm 1 mps 740 mmHg 64%
    16:00 +30°C° 0.1 mm 1 mps 740 mmHg 65%
    17:00 +30°C° 0.1 mm 2 mps 740 mmHg 65%
    18:00 +30°C° 0.1 mm 2 mps 740 mmHg 65%
    19:00 +28°C° 0.3 mm 2 mps 740 mmHg 72%
    20:00 +26°C° 0.3 mm 1 mps 741 mmHg 80%
    21:00 +24°C° 0.3 mm 1 mps 741 mmHg 87%
    22:00 +24°C° 0 mm 1 mps 740 mmHg 89%
    23:00 +22°C° 0 mm 0 mps 740 mmHg 90%
    Show more